World > North America > United States > Mississippi > Macon  

Macon, MS Hourly Weather Updates

Feedback E-mail the Weather

Quick Clicks

Macon, MS Weather Maps

°F °C°F °C
Macon Weather Map
UTC Time: 4/24/2024, 12:11
Your Time:

Macon, MS Regional Weather

Expires:202404241300;;291615
ASUS44 KJAN 241210
RWRMS 

MISSISSIPPI HOURLY WEATHER ROUNDUP
NATIONAL WEATHER SERVICE JACKSON MS
700 AM CDT WED APR 24 2024

NOTE: "FAIR: INDICATES FEW OR NO CLOUDS BELOW 12,000 FEET WITH NO
SIGNIFICANT WEATHER AND/OR OBSTRUCTIONS TO VISIBILITY.


MSZ003>006-009-014>017-022>024-029>033-037>039-241300-
NORTHEAST MISSISSIPPI
  
CITY           SKY/WX    TMP DP  RH WIND       PRES   REMARKS
ABERDEEN       CLEAR     54  54 100 CALM      30.11R                  
COLUMBUS AFB   CLEAR     56  52  87 SE6       30.06R                  
6HR MIN TEMP:  54; 6HR MAX TEMP:  58;                                

CORINTH        CLOUDY    59  55  88 CALM      30.07R                  
GOLDN TRIANGLE MOCLDY    57  53  86 SE3       30.11R                  
IUKA             N/A     58  52  82 CALM      30.08R                  
LOUISVILLE     CLOUDY    57  54  88 SW6       30.13R                  
STARKVILLE     CLEAR     54  52  94 CALM      30.08R                  
TUPELO         CLOUDY    59  51  75 CALM      30.07R                  
6HR MIN TEMP:  56; 6HR MAX TEMP:  61;                                

$$


SKY/WX - Weather  TMP - Temperature  DP - Dew Point  RH - Humidity
WIND - Wind Direction/Speed PRES - Barometric Pressure VSB - Visibility
WCI - Wind Chill Index E13G22 Wind - East Wind 13 mph/Gusts of 22 mph

Trending Headlines

Trending Entertainment Headlines

Macon Radar Loop

Use the map search tool if you want to place a location marker on the radar map...

Macon Quick Facts

National Two Day Weather Forecast


E-mail the Macon Weather Forecast

Voice your opinion or tell us about page issues...